Regional Weather Roundup
Issued by NWS

Home | Current Version | Previous Version | Graphics & Text | Print | Product List | Glossary On
Versions: 1 2 3 4 5 6 7 8 9 10 11 12 13 14 15 16 17 18 19 20 21 22 23 24 25 26 27 28 29 30 31 32 33 34 35 36 37 38 39 40 41 42 43 44 45 46 47 48 49 50
000
ASUS43 KDMX 240501
RWRIA

WEATHER ROUNDUP FOR IOWA
NATIONAL WEATHER SERVICE DES MOINES IA
1100 PM CST FRI FEB 23 2018

NOTE: "FAIR" INDICATES FEW OR NO CLOUDS BELOW 12,000 FEET WITH NO
SIGNIFICANT WEATHER AND/OR OBSTRUCTIONS TO VISIBILITY.

* - THESE STATIONS ARE NOT NWS STATIONS...THUS NOT UNDER NWS
QUALITY CONTROL.  THEY ALSO DO NOT REPORT WEATHER SUCH
AS PRECIPITATION OR FOG.

IAZ001>003-012>014-020>022-031>034-043>046-240600-
   NORTHWEST IOWA

CITY           SKY/WX    TMP DP  RH WIND       PRES   REMARKS
CARROLL *      CLOUDY    21  21 100 NE9       30.27F WCI  11
CHEROKEE *     CLOUDY    20  20 100 NE3       30.28F FOG
DENISON *      CLOUDY    21  21 100 E9        30.27F WCI  11
LE MARS *      CLOUDY    18  18 100 NE6       30.28F FOG     WCI   9
ORANGE CITY *  FOG       18  18 100 NE3       30.26S VSB 1/2
SHELDON *      FOG       16  16 100 N5        30.25S VSB<1/4 WCI   9
SIOUX CITY     CLOUDY    18  17  96 E7        30.29F FOG     WCI   9
SPENCER        FOG       18  16  92 N5        30.27S VSB 1/2 WCI  11
STORM LAKE *   CLEAR     19  19 100 NE6       30.25F FOG     WCI  11
$$

IAZ055>058-069>071-079>083-090>094-240600-
   SOUTHWEST IOWA

CITY           SKY/WX    TMP DP  RH WIND       PRES   REMARKS
ATLANTIC *     CLOUDY    21  21 100 NE13      30.26F WCI   9
AUDUBON *      CLOUDY    19  18  93 NE3       30.27S FOG
CLARINDA *     CLOUDY    28  28 100 NE13      30.25F WCI  18
COUNCIL BLFS * CLOUDY    21  21 100 NE9       30.26F WCI  11
CRESTON *      CLOUDY    25  23  93 NE14      30.24F WCI  13
HARLAN  *      CLOUDY    19  21 100 E8        30.31S WCI   9
LAMONI         CLOUDY    27  24  89 NE10      30.22F WCI  17
RED OAK *      CLOUDY    28  25  86 NE9       30.25F WCI  20
SHENANDOAH *   CLOUDY    28  27  93 NE15      30.24F WCI  17
$$

IAZ047>049-059>061-072>074-084-240600-
   CENTRAL IOWA

CITY           SKY/WX    TMP DP  RH WIND       PRES   REMARKS
AMES           PTCLDY    23  20  88 NE3       30.29F
ANKENY *       CLOUDY    25  23  93 NE7       30.32R WCI  17
BOONE *        CLOUDY    21  21 100 NE13      30.26F WCI   9
CHARITON *     CLOUDY    27  25  93 NE14      30.25F WCI  15
DES MOINES     CLOUDY    27  22  81 N10       30.29F WCI  17
GRINNELL*      CLOUDY    27  24  89 N12       30.29F WCI  16
KNOXVILLE *    CLOUDY    27  23  86 N9        30.26S WCI  17
MARSHALLTOWN   CLOUDY    23  21  92 N5        30.28F WCI  17
NEWTON *       CLOUDY    27  23  86 N9        30.28F WCI  17
PELLA *        CLOUDY    27  24  85 N7        30.29F WCI  20
$$

IAZ004>006-015-016-023>025-035-036-240600-
   NORTH CENTRAL IOWA

CITY           SKY/WX    TMP DP  RH WIND       PRES   REMARKS
CLARION *      FOG        9   9 100 CALM      30.28F VSB<1/4
ESTHERVILLE    FOG       16  15  96 N9        30.27R VSB 1/4 WCI   4
FORT DODGE *   FOG       12   9  87 CALM      30.28F VSB 3/4
MASON CITY     FOG       15  15 100 CALM      30.29S VSB 1/4
FOREST CITY *  FOG       16  14  93 CALM      30.27S VSB 1/4
WEBSTER CITY * FOG       16  14  93 CALM      30.26F VSB 1/2
IOWA FALLS *   FAIR      22  20  92 NW3       30.30S
$$

IAZ007>011-017>019-026>030-037>042-050>054-066-240600-
   NORTHEAST IOWA

CITY           SKY/WX    TMP DP  RH WIND       PRES   REMARKS
CEDAR RAPIDS   FAIR      24  20  84 N7        30.27F FOG     WCI  16
CHARLES CITY * FAIR      19  19 100 CALM      30.29R
CLINTON *      FAIR      28  28 100 W6        30.29S WCI  22
DECORAH *      FAIR      21  21 100 CALM      30.27R
DUBUQUE        FAIR      25  21  85 N6        30.27R WCI  18
MONTICELLO *   FAIR      27  25  93 CALM      30.29S
OELWEIN *      FAIR      25  25 100 N8        30.28F WCI  16
WATERLOO       FAIR      22  20  92 NW5       30.29F WCI  16
$$

IAZ064-065-067-068-078-240600-
   EAST CENTRAL IOWA

CITY           SKY/WX    TMP DP  RH WIND       PRES   REMARKS
DAVENPORT      FAIR      31  27  85 NW7       30.30F WCI  24
IOWA CITY      FAIR      28  23  81 NW5       30.30F WCI  23
MT. PLEASANT * MOCLDY    30  28  93 N8        30.27S WCI  23
MUSCATINE *    FAIR      30  27  86 N6        30.29F WCI  24
QUAD CITIES    FAIR      31  27  85 CALM      30.28F
$$

IAZ062-063-075>077-085>089-095>099-240600-
   SOUTHEAST IOWA

CITY           SKY/WX    TMP DP  RH WIND       PRES   REMARKS
BURLINGTON     MOCLDY    32  27  81 N9        30.25F WCI  24
FAIRFIELD *    PTCLDY    28  27  93 N9        30.27S WCI  20
FORT MADISON * MOCLDY    32  30  93 NE5       30.26F WCI  27
KEOKUK *       CLOUDY    34  30  86 NE3       30.25S
OSKALOOSA *    FAIR      27  26  94 N9        30.27F WCI  18
OTTUMWA        CLOUDY    28  24  85 NE8       30.27F WCI  20
WASHINGTON *   PTCLDY    28  28 100 N12       30.29F WCI  18
$$

ABBREVIATIONS USED IN REMARKS
   TC - TEMPERATURES IN CELSIUS
  WCI - WIND CHILL INDEX
   HX - HEAT INDEX
  VSB - VISIBILITY
$$





USA.gov is the U.S. government's official web portal to all federal, state and local government web resources and services.